CW4672 Weather Reports


time (UTC)temp
C
wind
direction
speed
KPH
gust
KPH
rain 1hr
cm
rain 24hr
cm
rain mn
cm
humidity
%
barometer
mb
20260505111849 12 281 0.0 0.0 0.00 0.00 0.00 91 1013.8
20260505111320 12 281 0.0 0.0 0.00 0.00 0.00 91 1013.8
20260505110851 12 281 0.0 0.0 0.00 0.00 0.00 91 1013.8
20260505110341 12 281 0.0 0.0 0.00 0.00 0.00 91 1013.7
20260505101834 12 281 0.0 0.0 0.00 0.00 0.00 90 1013.4
20260505101324 12 281 0.0 0.0 0.00 0.00 0.00 90 1013.5
20260505100813 12 281 0.0 0.0 0.00 0.00 0.00 90 1013.4
20260505100324 12 281 0.0 0.0 0.00 0.00 0.00 91 1013.4
20260505095833 12 281 0.0 0.0 0.00 0.00 0.00 91 1013.4
20260505095324 12 281 0.0 0.0 0.00 0.00 0.00 90 1013.4
20260505094819 12 281 0.0 0.0 0.00 0.00 0.00 90 1013.4
20260505094351 12 281 0.0 0.0 0.00 0.00 0.00 91 1013.3
20260505093820 12 312 0.0 0.0 0.00 0.00 0.00 91 1013.3
20260505093331 12 312 0.0 0.0 0.00 0.00 0.00 91 1013.3
20260505092821 12 312 0.0 0.0 0.00 0.00 0.00 91 1013.2
20260505092331 12 312 0.0 0.0 0.00 0.00 0.00 91 1013.2
20260505091823 12 312 0.0 0.0 0.00 0.00 0.00 91 1013.2
20260505091312 12 312 0.0 0.0 0.00 0.00 0.00 91 1013.2
20260505090819 11 312 0.0 0.0 0.00 0.00 0.00 91 1013.1
20260505090314 11 312 0.0 0.0 0.00 0.00 0.00 91 1013.2
20260505085825 11 312 0.0 0.0 0.00 0.00 0.00 91 1013.1
20260505085315 11 312 0.0 0.0 0.00 0.00 0.00 92 1013.1
20260505084824 11 312 0.0 0.0 0.00 0.00 0.00 92 1013.0
20260505084314 11 304 0.0 0.0 0.00 0.00 0.00 92 1013.0
20260505083825 11 5 0.0 0.0 0.00 0.00 0.00 93 1012.9
20260505083315 11 5 0.0 0.0 0.00 0.00 0.00 93 1013.0
20260505082825 11 5 0.0 0.0 0.00 0.00 0.00 93 1012.9
20260505082314 11 5 0.0 0.0 0.00 0.00 0.00 93 1012.9
20260505081843 11 5 0.0 0.0 0.00 0.00 0.00 93 1013.0
20260505081316 11 5 0.0 0.0 0.00 0.00 0.00 93 1013.0
20260505080828 11 5 0.0 0.0 0.00 0.00 0.00 93 1013.1
20260505080319 11 5 0.0 0.0 0.00 0.00 0.00 93 1013.0
20260505075829 11 5 0.0 0.0 0.00 0.00 0.00 93 1013.1
20260505075319 11 5 0.0 0.0 0.00 0.00 0.00 93 1013.1
20260505074829 11 5 0.0 0.0 0.00 0.00 0.00 93 1013.1
20260505074319 11 5 0.0 0.0 0.00 0.00 0.00 93 1013.0
20260505073828 11 5 0.0 0.0 0.00 0.00 0.00 93 1012.9
20260505073339 11 5 0.0 0.0 0.00 0.00 0.00 93 1012.9
20260505072829 11 5 0.0 0.0 0.00 0.00 0.00 93 1012.8
20260505072324 11 360 0.0 0.0 0.00 0.00 0.00 93 1012.7
20260505071815 10 360 0.0 0.0 0.00 0.00 0.00 93 1012.7
20260505071325 10 360 0.0 0.0 0.00 0.00 0.00 93 1012.7
20260505070815 10 360 0.0 0.0 0.00 0.00 0.00 93 1012.6
20260505070342 10 360 0.0 0.0 0.00 0.00 0.00 93 1012.5
20260505065852 10 360 0.0 0.0 0.00 0.00 0.00 92 1012.5
20260505065324 10 360 0.0 0.0 0.00 0.00 0.00 92 1012.4
20260505064834 10 360 0.0 0.0 0.00 0.00 0.00 92 1012.4
20260505064323 10 360 0.0 0.0 0.00 0.00 0.00 92 1012.3
20260505063853 10 360 0.0 0.0 0.00 0.00 0.00 92 1012.3
20260505063320 10 360 0.0 0.0 0.00 0.00 0.00 91 1012.2
20260505062829 10 360 0.0 0.0 0.00 0.00 0.00 91 1012.2
20260505062319 10 360 0.0 0.0 0.00 0.00 0.00 91 1012.2
20260505061814 10 360 0.0 0.0 0.00 0.00 0.00 89 1012.2
20260505061324 10 360 0.0 0.0 0.00 0.00 0.00 88 1012.1
20260505060814 10 360 0.0 0.0 0.00 0.00 0.00 88 1012.1
20260505060325 11 360 0.0 0.0 0.00 0.00 0.00 88 1012.1
20260505055815 11 360 0.0 0.0 0.00 0.00 0.00 88 1012.0
20260505055324 11 360 0.0 0.0 0.00 0.00 0.00 88 1011.9
20260505054814 11 360 0.0 0.0 0.00 0.00 0.00 88 1011.9
20260505054325 11 360 0.0 0.0 0.00 0.00 0.00 88 1011.9
20260505053815 11 360 0.0 0.0 0.00 0.00 0.00 87 1011.8
20260505053344 11 360 0.0 0.0 0.00 0.00 0.00 87 1011.8
20260505052817 12 360 0.0 0.0 0.00 0.00 0.00 87 1011.8
20260505052325 12 360 0.0 0.0 0.00 0.00 0.00 87 1011.8
20260505051815 12 350 0.0 0.0 0.00 0.00 0.00 87 1011.8
20260505051325 12 360 0.0 0.0 0.00 0.00 0.00 87 1011.7
20260505050815 12 15 0.0 0.0 0.00 0.00 0.00 86 1011.7
20260505050325 12 38 0.0 0.0 0.00 0.00 0.00 85 1011.6
20260505041327 14 5 0.0 0.0 0.00 0.00 0.00 80 1011.2
20260505040837 14 348 0.0 0.0 0.00 0.00 0.00 79 1011.1
20260505040346 15 268 0.0 0.0 0.00 0.00 0.00 79 1011.0
20260505035815 15 269 0.0 0.0 0.00 0.00 0.00 78 1010.9
20260505035324 15 286 0.0 0.0 0.00 0.00 0.00 77 1010.8
20260505034838 15 319 0.0 0.0 0.00 0.00 0.00 76 1010.7
20260505034326 15 355 0.0 0.0 0.00 0.00 0.00 76 1010.6
20260505033816 16 273 0.0 0.0 0.00 0.00 0.00 75 1010.6
20260505033346 16 292 0.0 0.0 0.00 0.00 0.00 74 1010.4
20260505032813 16 333 0.0 0.0 0.00 0.00 0.00 73 1010.4
20260505032323 16 317 0.0 0.0 0.00 0.00 0.00 72 1010.4
20260505031852 17 336 0.0 0.0 0.00 0.00 0.00 71 1010.3
20260505031321 17 344 0.0 0.0 0.00 0.00 0.00 70 1010.2
20260505030831 17 318 0.0 0.0 0.00 0.00 0.00 69 1010.2
20260505030341 18 318 0.0 0.0 0.00 0.00 0.00 67 1010.1
20260505025831 18 320 0.0 0.0 0.00 0.00 0.00 66 1010.0
20260505025321 18 326 0.0 0.0 0.00 0.00 0.00 65 1010.0
20260505024814 19 324 0.0 0.0 0.00 0.00 0.00 63 1009.8
20260505024324 19 311 0.0 0.0 0.00 0.00 0.00 62 1009.7
20260505023813 19 329 0.0 0.0 0.00 0.00 0.00 62 1009.7
20260505023323 20 339 0.0 0.0 0.00 0.00 0.00 60 1009.6
20260505022812 20 355 0.0 0.0 0.00 0.00 0.00 59 1009.6
20260505022342 20 313 0.0 0.0 0.00 0.00 0.00 58 1009.6
20260505021812 20 351 0.0 0.0 0.00 0.00 0.00 58 1009.6
20260505021342 20 355 0.0 0.0 0.00 0.00 0.00 56 1009.5
20260505020830 21 360 0.0 0.0 0.00 0.00 0.00 55 1009.5
20260505020321 21 351 0.0 0.0 0.00 0.00 0.00 55 1009.5
20260505015851 21 5 0.0 0.0 0.00 0.00 0.00 54 1009.5
20260505015319 21 355 0.0 0.0 0.00 0.00 0.00 52 1009.4
20260505014812 21 355 0.0 1.6 0.00 0.00 0.00 53 1009.5
20260505014322 21 5 0.0 0.0 0.00 0.00 0.00 53 1009.5
20260505013831 21 319 0.0 0.0 0.00 0.00 0.00 50 1009.5
20260505013320 22 9 0.0 0.0 0.00 0.00 0.00 51 1009.5
20260505012829 22 27 0.0 1.6 0.00 0.00 0.00 50 1009.5
20260505012319 22 310 0.0 8.0 0.00 0.00 0.00 48 1009.4
20260505011829 22 347 0.0 8.0 0.00 0.00 0.00 50 1009.5
20260505011318 22 347 0.0 8.0 0.00 0.00 0.00 48 1009.5
20260505010829 23 355 0.0 8.0 0.00 0.00 0.00 47 1009.5
20260505010322 23 344 0.0 6.4 0.00 0.00 0.00 49 1009.4
20260505005832 23 291 0.0 3.2 0.00 0.00 0.00 49 1009.4
20260505005342 23 333 0.0 3.2 0.00 0.00 0.00 48 1009.3
20260505004831 23 346 0.0 3.2 0.00 0.00 0.00 48 1009.3
20260505004320 23 338 0.0 3.2 0.00 0.00 0.00 48 1009.2
20260505003829 23 338 0.0 0.0 0.00 0.00 0.00 48 1009.2
20260505003319 24 347 0.0 1.6 0.00 0.00 0.00 48 1009.2
20260505002829 24 313 0.0 1.6 0.00 0.00 0.00 48 1009.2
20260505002317 24 257 0.0 0.0 0.00 0.00 0.00 48 1009.2
20260505001826 24 297 0.0 0.0 0.00 0.00 0.00 48 1009.2
20260505001317 24 40 0.0 0.0 0.00 0.00 0.00 48 1009.2
20260505000830 24 332 0.0 6.4 0.00 0.00 0.00 47 1009.2
20260505000320 24 288 0.0 11.3 0.00 0.00 0.00 49 1009.1
20260504235830 24 360 1.6 11.3 0.00 0.00 0.00 50 1009.2
20260504235318 24 279 0.0 8.0 0.00 0.00 0.00 50 1009.1
20260504234828 24 325 0.0 8.0 0.00 0.00 0.00 50 1009.1
20260504234317 25 21 0.0 12.9 0.00 0.00 0.00 51 1009.0
20260504233826 25 345 1.6 12.9 0.00 0.00 0.00 48 1009.1
20260504233315 25 9 0.0 1.6 0.00 0.00 0.00 50 1009.0
20260504232825 25 22 0.0 1.6 0.00 0.00 0.00 50 1009.0
20260504232335 25 12 0.0 17.7 0.00 0.00 0.00 49 1009.1
20260504231823 25 336 0.0 17.7 0.00 0.00 0.00 50 1009.1
20260504231316 25 334 0.0 3.2 0.00 0.00 0.00 51 1009.1
20260504230825 25 15 0.0 9.7 0.00 0.00 0.00 53 1009.1
20260504230315 25 355 0.0 1.6 0.00 0.00 0.00 53 1009.1
20260504225825 25 325 0.0 0.0 0.00 0.00 0.00 51 1009.1
20260504225317 25 340 0.0 1.6 0.00 0.00 0.00 53 1009.2
20260504224828 25 261 0.0 1.6 0.00 0.00 0.00 46 1009.2
20260504224319 25 338 0.0 1.6 0.00 0.00 0.00 49 1009.2
20260504223829 25 328 0.0 1.6 0.00 0.00 0.00 49 1009.2
20260504223319 25 240 0.0 3.2 0.00 0.00 0.00 48 1009.2
20260504222813 25 238 0.0 6.4 0.00 0.00 0.00 50 1009.2
20260504222322 25 221 0.0 1.6 0.00 0.00 0.00 48 1009.4
20260504221813 25 260 0.0 1.6 0.00 0.00 0.00 47 1009.5
20260504221323 25 309 0.0 0.0 0.00 0.00 0.00 51 1009.5
20260504220834 25 252 0.0 0.0 0.00 0.00 0.00 55 1009.6
20260504220322 24 281 0.0 0.0 0.00 0.00 0.00 53 1009.6
20260504215813 25 307 0.0 1.6 0.00 0.00 0.00 52 1009.7
20260504215343 25 236 0.0 22.5 0.00 0.00 0.00 56 1009.8
20260504214833 25 330 3.2 22.5 0.00 0.00 0.00 55 1009.8
20260504214322 24 238 0.0 0.0 0.00 0.00 0.00 61 1009.8
20260504213813 24 235 0.0 1.6 0.00 0.00 0.00 60 1009.8
20260504213327 23 232 0.0 1.6 0.00 0.00 0.00 64 1009.9
20260504212818 23 209 0.0 3.2 0.00 0.00 0.00 65 1009.9
20260504212329 23 246 0.0 3.2 0.00 0.00 0.00 60 1009.9
20260504211819 23 209 0.0 1.6 0.00 0.00 0.00 63 1010.0
20260504211329 23 180 0.0 1.6 0.00 0.00 0.00 60 1010.1
20260504210819 23 234 0.0 0.0 0.00 0.00 0.00 63 1010.1
20260504210328 23 193 0.0 0.0 0.00 0.00 0.00 60 1010.2
20260504205816 23 217 0.0 1.6 0.00 0.00 0.00 59 1010.2
20260504205326 23 204 0.0 1.6 0.00 0.00 0.00 61 1010.3
20260504204817 23 191 0.0 0.0 0.00 0.00 0.00 59 1010.3
20260504204331 23 219 0.0 1.6 0.00 0.00 0.00 62 1010.3
20260504203821 23 226 0.0 0.0 0.00 0.00 0.00 63 1010.3
20260504203352 23 196 0.0 0.0 0.00 0.00 0.00 60 1010.4
20260504202822 22 217 0.0 3.2 0.00 0.00 0.00 60 1010.4
20260504202312 22 164 0.0 0.0 0.00 0.00 0.00 62 1010.4
20260504201823 22 225 0.0 0.0 0.00 0.00 0.00 60 1010.6
20260504201333 22 211 0.0 0.0 0.00 0.00 0.00 62 1010.6
20260504200822 22 294 0.0 0.0 0.00 0.00 0.00 61 1010.6
20260504200332 22 241 0.0 0.0 0.00 0.00 0.00 66 1010.7
20260504195821 22 219 0.0 0.0 0.00 0.00 0.00 64 1010.7
20260504195337 22 193 0.0 0.0 0.00 0.00 0.00 66 1010.8
20260504194826 21 195 0.0 0.0 0.00 0.00 0.00 64 1010.8
20260504194317 21 242 0.0 0.0 0.00 0.00 0.00 62 1010.8
20260504193827 21 245 0.0 0.0 0.00 0.00 0.00 67 1010.8
20260504193316 21 213 0.0 0.0 0.00 0.00 0.00 65 1010.9
20260504192825 21 204 0.0 0.0 0.00 0.00 0.00 65 1010.9
20260504192315 21 199 0.0 0.0 0.00 0.00 0.00 63 1011.0
20260504191826 21 270 0.0 0.0 0.00 0.00 0.00 62 1011.0
20260504191316 21 230 0.0 0.0 0.00 0.00 0.00 62 1011.1
20260504190825 21 202 0.0 0.0 0.00 0.00 0.00 63 1011.1
20260504190339 20 192 0.0 0.0 0.00 0.00 0.00 64 1011.2
20260504185849 20 204 0.0 0.0 0.00 0.00 0.00 67 1011.2
20260504185318 20 222 0.0 0.0 0.00 0.00 0.00 66 1011.2
20260504184829 20 243 0.0 0.0 0.00 0.00 0.00 69 1011.2
20260504184320 20 204 0.0 0.0 0.00 0.00 0.00 69 1011.3
20260504183831 20 226 0.0 0.0 0.00 0.00 0.00 68 1011.4
20260504183320 20 229 0.0 0.0 0.00 0.00 0.00 69 1011.4
20260504182850 20 196 0.0 0.0 0.00 0.00 0.00 69 1011.4
20260504182339 19 173 0.0 6.4 0.00 0.00 0.00 68 1011.4
20260504181828 19 231 0.0 0.0 0.00 0.00 0.00 71 1011.4
20260504181318 19 182 0.0 0.0 0.00 0.00 0.00 71 1011.5
20260504180812 19 209 0.0 0.0 0.00 0.00 0.00 71 1011.5
20260504180322 19 162 0.0 0.0 0.00 0.00 0.00 71 1011.5
20260504175813 19 222 0.0 0.0 0.00 0.00 0.00 73 1011.4
20260504175327 18 248 0.0 0.0 0.00 0.00 0.00 75 1011.5
20260504174820 18 215 0.0 0.0 0.00 0.00 0.00 74 1011.5
20260504174313 18 259 0.0 0.0 0.00 0.00 0.00 74 1011.5
20260504173825 18 300 0.0 0.0 0.00 0.00 0.00 72 1011.4
20260504173319 18 225 0.0 0.0 0.00 0.00 0.00 75 1011.5
20260504172815 18 250 0.0 0.0 0.00 0.00 0.00 73 1011.5
20260504172327 18 213 0.0 0.0 0.00 0.00 0.00 76 1011.4
20260504171820 17 255 0.0 0.0 0.00 0.00 0.00 77 1011.4
20260504171352 17 308 0.0 0.0 0.00 0.00 0.00 76 1011.4
20260504170824 17 259 0.0 0.0 0.00 0.00 0.00 76 1011.4
20260504170315 17 277 0.0 0.0 0.00 0.00 0.00 76 1011.3
20260504160325 14 289 0.0 0.0 0.00 0.00 0.00 87 1011.1
20260504150847 10 55 0.0 0.0 0.00 0.00 0.00 97 1011.0
20260504150318 10 55 0.0 0.0 0.00 0.00 0.00 97 1011.0
20260504141318 7 55 0.0 0.0 0.00 0.00 0.00 96 1010.3
20260504140829 7 55 0.0 0.0 0.00 0.00 0.00 96 1010.3
20260504140321 7 55 0.0 0.0 0.00 0.00 0.00 96 1010.2
20260504130816 6 55 0.0 0.0 0.00 0.00 0.00 95 1009.5
20260504130328 6 55 0.0 0.0 0.00 0.00 0.00 95 1009.5